GCMCH EGBT-EGSU

Flight info

Callsign GCMCH
Flight time 0h 25m
Altitude 3500
Route VFR NORTHAMPTON BEDFORD SANDY ROYSTON
Aircraft PA24/L-VGDW/C

Departure

Time 2026-04-25 08:31
Airport Turweston Aerodrome (EGBT)

Arrival

Time 2026-04-25 08:56
Airport Duxford Aerodrome (EGSU)
Time Latitude Longitude Altitude Speed Heading
2026-04-25 08:08 52.03916 -1.10293 431 ft 0 kts 302°
2026-04-25 08:23 52.03933 -1.10314 431 ft 6 kts 20°
2026-04-25 08:24 52.03983 -1.10257 425 ft 7 kts 45°
2026-04-25 08:24 52.03997 -1.10239 433 ft 0 kts
2026-04-25 08:29 52.04001 -1.10237 433 ft 5 kts 19°
2026-04-25 08:29 52.04056 -1.10208 427 ft 6 kts 349°
2026-04-25 08:29 52.04074 -1.10207 432 ft 1 kts 89°
2026-04-25 08:30 52.04074 -1.10206 432 ft 0 kts 89°
2026-04-25 08:30 52.04075 -1.10157 432 ft 33 kts 88°
2026-04-25 08:31 52.04085 -1.09352 536 ft 87 kts 89°
2026-04-25 08:31 52.04095 -1.08343 864 ft 96 kts 86°
2026-04-25 08:31 52.04191 -1.07254 1271 ft 100 kts 82°
2026-04-25 08:31 52.04305 -1.06097 1657 ft 106 kts 80°
2026-04-25 08:32 52.04440 -1.04907 2044 ft 109 kts 80°
2026-04-25 08:32 52.04570 -1.03676 2392 ft 111 kts 81°
2026-04-25 08:32 52.04693 -1.02437 2696 ft 112 kts 79°
2026-04-25 08:32 52.05083 -1.01339 2934 ft 116 kts 42°
2026-04-25 08:33 52.05799 -1.00799 3249 ft 113 kts
2026-04-25 08:33 52.06614 -1.00794 3413 ft 125 kts 359°
2026-04-25 08:33 52.07521 -1.00831 3484 ft 134 kts 358°
2026-04-25 08:33 52.08447 -1.00582 3559 ft 138 kts 19°
2026-04-25 08:34 52.09358 -0.99994 3580 ft 144 kts 22°
2026-04-25 08:34 52.10285 -0.99349 3617 ft 146 kts 24°
2026-04-25 08:34 52.11215 -0.98579 3546 ft 152 kts 28°
2026-04-25 08:34 52.12137 -0.97783 3476 ft 149 kts 28°
2026-04-25 08:35 52.13050 -0.97035 3476 ft 145 kts 25°
2026-04-25 08:35 52.13959 -0.96341 3464 ft 143 kts 25°
2026-04-25 08:35 52.14848 -0.95649 3489 ft 140 kts 25°
2026-04-25 08:35 52.15740 -0.94995 3459 ft 142 kts 22°
2026-04-25 08:36 52.16665 -0.94430 3485 ft 140 kts 19°
2026-04-25 08:36 52.17596 -0.93930 3475 ft 142 kts 16°
2026-04-25 08:36 52.18514 -0.93342 3441 ft 143 kts 32°
2026-04-25 08:36 52.19236 -0.92209 3401 ft 145 kts 45°
2026-04-25 08:37 52.19988 -0.91117 3337 ft 147 kts 41°
2026-04-25 08:37 52.20460 -0.89671 3263 ft 148 kts 87°
2026-04-25 08:37 52.20360 -0.88091 3473 ft 132 kts 88°
2026-04-25 08:37 52.20634 -0.86648 3463 ft 137 kts 59°
2026-04-25 08:38 52.21271 -0.85453 3416 ft 142 kts 41°
2026-04-25 08:38 52.21908 -0.84243 3424 ft 141 kts 67°
2026-04-25 08:38 52.21928 -0.82661 3411 ft 143 kts 102°
2026-04-25 08:38 52.21716 -0.81086 3416 ft 142 kts 103°
2026-04-25 08:39 52.21418 -0.79534 3401 ft 143 kts 109°
2026-04-25 08:39 52.21064 -0.78027 3429 ft 142 kts 111°
2026-04-25 08:39 52.20824 -0.76479 3391 ft 144 kts 98°
2026-04-25 08:39 52.20764 -0.74864 3412 ft 142 kts 90°
2026-04-25 08:40 52.20761 -0.73252 3407 ft 142 kts 88°
2026-04-25 08:40 52.21027 -0.71688 3380 ft 143 kts 67°
2026-04-25 08:40 52.21393 -0.70197 3420 ft 141 kts 69°
2026-04-25 08:40 52.21744 -0.68697 3406 ft 142 kts 69°
2026-04-25 08:41 52.21923 -0.67112 3346 ft 146 kts 93°
2026-04-25 08:41 52.21604 -0.65588 3386 ft 142 kts 123°
2026-04-25 08:41 52.20987 -0.64313 3359 ft 143 kts 128°
2026-04-25 08:41 52.20388 -0.63018 3357 ft 143 kts 127°
2026-04-25 08:42 52.19784 -0.61724 3343 ft 143 kts 128°
2026-04-25 08:42 52.19156 -0.60467 3338 ft 143 kts 130°
2026-04-25 08:42 52.18503 -0.59235 3330 ft 143 kts 132°
2026-04-25 08:42 52.17819 -0.58063 3327 ft 143 kts 135°
2026-04-25 08:43 52.17127 -0.56902 3318 ft 143 kts 133°
2026-04-25 08:43 52.16692 -0.56092 3316 ft 143 kts 130°
2026-04-25 08:43 52.16060 -0.54841 3312 ft 143 kts 133°
2026-04-25 08:43 52.15273 -0.53864 3345 ft 141 kts 147°
2026-04-25 08:44 52.14450 -0.53003 3347 ft 141 kts 147°
2026-04-25 08:44 52.13639 -0.52059 3316 ft 143 kts 145°
2026-04-25 08:44 52.12889 -0.51042 3341 ft 142 kts 126°
2026-04-25 08:44 52.12562 -0.49550 3358 ft 141 kts 97°
2026-04-25 08:45 52.12521 -0.47946 3356 ft 142 kts 90°
2026-04-25 08:45 52.12511 -0.46348 3370 ft 141 kts 91°
2026-04-25 08:45 52.12481 -0.44753 3384 ft 141 kts 92°
2026-04-25 08:45 52.12473 -0.43154 3387 ft 141 kts 88°
2026-04-25 08:46 52.12514 -0.41559 3397 ft 141 kts 88°
2026-04-25 08:46 52.12570 -0.39960 3407 ft 141 kts 86°
2026-04-25 08:46 52.12648 -0.38364 3412 ft 142 kts 85°
2026-04-25 08:46 52.12738 -0.36769 3425 ft 141 kts 85°
2026-04-25 08:47 52.12810 -0.35173 3432 ft 142 kts 86°
2026-04-25 08:47 52.12860 -0.33573 3441 ft 141 kts 89°
2026-04-25 08:47 52.12815 -0.31975 3442 ft 142 kts 99°
2026-04-25 08:47 52.12447 -0.30507 3452 ft 141 kts 119°
2026-04-25 08:48 52.11956 -0.29140 3485 ft 141 kts 121°
2026-04-25 08:48 52.11468 -0.27750 3478 ft 141 kts 116°
2026-04-25 08:48 52.11077 -0.26281 3482 ft 142 kts 113°
2026-04-25 08:48 52.10687 -0.24806 3491 ft 142 kts 114°
2026-04-25 08:49 52.10284 -0.23347 3495 ft 142 kts 115°
2026-04-25 08:49 52.09867 -0.21887 3506 ft 142 kts 114°
2026-04-25 08:49 52.09458 -0.20429 3512 ft 142 kts 117°
2026-04-25 08:49 52.09006 -0.18999 3514 ft 142 kts 117°
2026-04-25 08:50 52.08543 -0.17577 3521 ft 142 kts 118°
2026-04-25 08:50 52.08135 -0.16123 3538 ft 141 kts 113°
2026-04-25 08:50 52.07732 -0.14662 3544 ft 142 kts 115°
2026-04-25 08:50 52.07286 -0.13228 3540 ft 142 kts 120°
2026-04-25 08:51 52.06788 -0.11838 3546 ft 142 kts 121°
2026-04-25 08:51 52.06265 -0.10484 3548 ft 142 kts 124°
2026-04-25 08:51 52.05699 -0.09167 3548 ft 142 kts 125°
2026-04-25 08:51 52.05112 -0.07878 3545 ft 143 kts 127°
2026-04-25 08:52 52.04563 -0.06580 3428 ft 136 kts 124°
2026-04-25 08:52 52.04048 -0.05338 3165 ft 135 kts 124°
2026-04-25 08:52 52.03544 -0.04044 2942 ft 132 kts 117°
2026-04-25 08:52 52.03227 -0.02671 2712 ft 132 kts 101°
2026-04-25 08:53 52.03302 -0.01233 2523 ft 128 kts 71°
2026-04-25 08:53 52.03709 0.00032 2320 ft 125 kts 55°
2026-04-25 08:53 52.04216 0.01173 2091 ft 125 kts 53°
2026-04-25 08:53 52.04735 0.02303 1883 ft 125 kts 52°
2026-04-25 08:54 52.05252 0.03431 1617 ft 123 kts 54°
2026-04-25 08:54 52.05716 0.04592 1312 ft 124 kts 56°
2026-04-25 08:54 52.06170 0.05721 1138 ft 117 kts 57°
2026-04-25 08:54 52.06600 0.06829 965 ft 110 kts 58°
2026-04-25 08:55 52.06970 0.07820 834 ft 97 kts 59°
2026-04-25 08:55 52.07315 0.08732 713 ft 97 kts 59°
2026-04-25 08:55 52.07658 0.09584 589 ft 86 kts 57°
2026-04-25 08:55 52.07979 0.10384 491 ft 84 kts 58°
2026-04-25 08:56 52.08287 0.11179 380 ft 84 kts 58°
2026-04-25 08:56 52.08576 0.11929 229 ft 76 kts 58°
2026-04-25 08:56 52.08846 0.12624 118 ft 62 kts 60°
2026-04-25 08:56 52.09025 0.13072 115 ft 36 kts 59°
2026-04-25 08:57 52.09143 0.13385 115 ft 29 kts 58°
2026-04-25 08:57 52.09244 0.13643 115 ft 26 kts 58°
2026-04-25 08:57 52.09333 0.13875 115 ft 18 kts 58°
2026-04-25 08:57 52.09391 0.13908 115 ft 7 kts 323°
2026-04-25 08:58 52.09421 0.13858 115 ft 0 kts 314°
2026-04-25 08:58 52.09423 0.13854 115 ft 4 kts 314°
2026-04-25 08:58 52.09470 0.13770 115 ft 6 kts 310°
2026-04-25 08:59 52.09477 0.13686 115 ft 10 kts 259°
2026-04-25 08:59 52.09459 0.13568 115 ft 12 kts 256°
2026-04-25 08:59 52.09440 0.13422 115 ft 10 kts 275°
2026-04-25 08:59 52.09468 0.13380 115 ft 0 kts 349°